Tracking 19720 objects as of 26-Jun-2019
HD Live streaming from Space Station
objects crossing your sky now

LEMUR 2 ORZULAK

Track LEMUR 2 ORZULAK now!
10-day predictions
LEMUR 2 ORZULAK is classified as:


NORAD ID: 43731
Int'l Code: 2018-096N
Perigee: 477.4 km
Apogee: 504.2 km
Inclination: 97.5 °
Period: 94.3 minutes
Semi major axis: 6861 km
RCS: Unknown
Launch date: November 29, 2018
Source: United States (US)
Launch site: SRIHARIKOTA (SRI)
aabbcc
Your satellite tracking list
Your tracking list is empty




NASA's NSSDC Master Catalog

Two Line Element Set (TLE):
1 43731U 18096N   19176.42235466  .00001194  00000-0  47176-4 0  9992
2 43731  97.4605 246.6087 0019590 315.4389  44.5274 15.27373894 31774
Source of the keplerian elements: AFSPC